{"data":{"norad_id":68663,"epoch":"2026-05-25T02:10:42.750048Z","epoch_age_seconds":60976,"freshness":"FRESH","line1":"1 68663U 26077B   26145.09077257  .00009088  00000+0  28347-3 0  9997","line2":"2 68663  97.2855  16.6223 0001511  93.6825 266.4591 15.33446793  6866","mean_motion":15.33446793,"eccentricity":0.0001511,"inclination_deg":97.2855,"raan_deg":16.6223,"arg_perigee_deg":93.6825,"mean_anomaly_deg":266.4591,"bstar":0.00028347,"rev_number":686,"period_min":93.906094855943,"perigee_km":464.50376050852,"apogee_km":466.5719190451,"semimajor_km":6843.6748397768,"source":"CELESTRAK","updated_at":"2026-05-25T13:38:21.991137Z"}}